Time,TemperatureF,DewpointF,PressureIn,WindDirection,WindDirectionDegrees,WindSpeedMPH,WindSpeedGustMPH,Humidity,HourlyPrecipIn,Conditions,Clouds,dailyrainin,SolarRadiationWatts/m^2,SoftwareType,DateUTC
2013-08-17 00:00:00,84.1,78.7,30.04,SE,146,1.0,1.0,84,0.00,,,0.00,0,Wunderground v.1.15,2013-08-17 04:00:00,
2013-08-17 00:02:00,84.1,78.7,30.04,SSE,161,1.0,1.0,84,0.00,,,0.00,0,Wunderground v.1.15,2013-08-17 04:02:00,
2013-08-17 00:06:00,84.0,78.6,30.04,ESE,106,0.0,4.0,84,0.00,,,0.00,0,Wunderground v.1.15,2013-08-17 04:06:00,
2013-08-17 00:08:00,84.1,78.7,30.04,ESE,121,0.0,4.0,84,0.00,,,0.00,0,Wunderground v.1.15,2013-08-17 04:08:00,
2013-08-17 00:12:00,84.0,78.6,30.04,SE,142,1.0,1.0,84,0.00,,,0.00,0,Wunderground v.1.15,2013-08-17 04:12:00,
2013-08-17 00:18:00,83.9,78.5,30.04,ESE,116,1.0,1.0,84,0.00,,,0.00,0,Wunderground v.1.15,2013-08-17 04:18:00,
2013-08-17 00:24:00,83.9,78.5,30.04,SE,142,1.0,1.0,84,0.00,,,0.00,0,Wunderground v.1.15,2013-08-17 04:24:00,
2013-08-17 00:30:00,83.9,78.5,30.04,SE,138,0.0,0.0,84,0.00,,,0.00,0,Wunderground v.1.15,2013-08-17 04:30:00,
2013-08-17 00:36:00,83.9,78.5,30.04,SE,130,1.0,4.0,84,0.00,,,0.00,0,Wunderground v.1.15,2013-08-17 04:36:00,
2013-08-17 00:42:00,83.9,78.5,30.03,East,98,0.0,1.0,84,0.00,,,0.00,0,Wunderground v.1.15,2013-08-17 04:42:00,
2013-08-17 00:48:00,83.8,78.8,30.03,SE,128,0.0,1.0,85,0.00,,,0.00,0,Wunderground v.1.15,2013-08-17 04:48:00,
2013-08-17 00:54:00,83.8,78.8,30.03,East,101,0.0,0.0,85,0.00,,,0.00,0,Wunderground v.1.15,2013-08-17 04:54:00,
2013-08-17 01:00:00,83.7,78.7,30.03,SE,126,0.0,0.0,85,0.00,,,0.00,0,Wunderground v.1.15,2013-08-17 05:00:00,
2013-08-17 01:06:00,83.7,78.7,30.03,ESE,123,0.0,0.0,85,0.00,,,0.00,0,Wunderground v.1.15,2013-08-17 05:06:00,
2013-08-17 01:12:00,83.6,78.6,30.03,ESE,119,0.0,0.0,85,0.00,,,0.00,0,Wunderground v.1.15,2013-08-17 05:12:00,
2013-08-17 01:18:00,83.6,78.6,30.03,SE,127,0.0,0.0,85,0.00,,,0.00,0,Wunderground v.1.15,2013-08-17 05:18:00,
2013-08-17 01:24:00,83.6,79.0,30.02,SE,132,0.0,0.0,86,0.00,,,0.00,0,Wunderground v.1.15,2013-08-17 05:24:00,
2013-08-17 01:30:00,83.5,78.9,30.02,SE,132,0.0,0.0,86,0.00,,,0.00,0,Wunderground v.1.15,2013-08-17 05:30:00,
2013-08-17 01:36:00,83.4,78.8,30.02,East,101,0.0,0.0,86,0.00,,,0.00,0,Wunderground v.1.15,2013-08-17 05:36:00,
2013-08-17 01:42:00,83.4,78.4,30.02,ESE,103,0.0,0.0,85,0.00,,,0.00,0,Wunderground v.1.15,2013-08-17 05:42:00,
2013-08-17 01:48:00,83.4,78.1,30.02,ESE,112,0.0,0.0,84,0.00,,,0.00,0,Wunderground v.1.15,2013-08-17 05:48:00,
2013-08-17 01:54:00,83.4,78.1,30.02,ESE,117,0.0,0.0,84,0.00,,,0.00,0,Wunderground v.1.15,2013-08-17 05:54:00,
2013-08-17 02:00:00,83.6,77.9,30.02,ESE,113,0.0,4.0,83,0.00,,,0.00,0,Wunderground v.1.15,2013-08-17 06:00:00,
2013-08-17 02:06:00,83.8,78.1,30.02,East,88,2.0,7.0,83,0.00,,,0.00,0,Wunderground v.1.15,2013-08-17 06:06:00,
2013-08-17 02:12:00,84.0,78.3,30.02,SE,130,3.0,3.0,83,0.00,,,0.00,0,Wunderground v.1.15,2013-08-17 06:12:00,
2013-08-17 02:18:00,84.0,78.3,30.02,East,96,1.0,3.0,83,0.00,,,0.00,0,Wunderground v.1.15,2013-08-17 06:18:00,
2013-08-17 02:24:00,84.0,78.6,30.02,ENE,65,1.0,4.0,84,0.00,,,0.00,0,Wunderground v.1.15,2013-08-17 06:24:00,
2013-08-17 02:30:00,84.0,78.6,30.02,ESE,102,2.0,3.0,84,0.00,,,0.00,0,Wunderground v.1.15,2013-08-17 06:30:00,
2013-08-17 02:36:00,84.0,78.6,30.02,ESE,111,1.0,4.0,84,0.00,,,0.00,0,Wunderground v.1.15,2013-08-17 06:36:00,
2013-08-17 02:42:00,84.0,78.6,30.02,ESE,122,0.0,1.0,84,0.00,,,0.00,0,Wunderground v.1.15,2013-08-17 06:42:00,
2013-08-17 02:48:00,84.0,78.6,30.02,NE,48,0.0,1.0,84,0.00,,,0.00,0,Wunderground v.1.15,2013-08-17 06:48:00,
2013-08-17 02:54:00,84.0,78.6,30.02,East,88,0.0,1.0,84,0.00,,,0.00,0,Wunderground v.1.15,2013-08-17 06:54:00,
2013-08-17 03:00:00,84.0,78.6,30.02,ESE,105,0.0,0.0,84,0.00,,,0.00,0,Wunderground v.1.15,2013-08-17 07:00:00,
2013-08-17 03:06:00,84.0,78.6,30.02,ESE,119,0.0,0.0,84,0.00,,,0.00,0,Wunderground v.1.15,2013-08-17 07:06:00,
2013-08-17 03:12:00,83.9,78.5,30.02,SE,136,0.0,0.0,84,0.00,,,0.00,0,Wunderground v.1.15,2013-08-17 07:12:00,
2013-08-17 03:18:00,83.9,78.5,30.01,SE,137,0.0,7.0,84,0.00,,,0.00,0,Wunderground v.1.15,2013-08-17 07:18:00,
2013-08-17 03:24:00,83.9,78.5,30.01,ESE,104,2.0,6.0,84,0.00,,,0.00,0,Wunderground v.1.15,2013-08-17 07:24:00,
2013-08-17 03:30:00,83.9,78.5,30.01,ESE,110,2.0,2.0,84,0.00,,,0.00,0,Wunderground v.1.15,2013-08-17 07:30:00,
2013-08-17 03:36:00,83.8,78.4,30.01,ESE,119,3.0,4.0,84,0.00,,,0.00,0,Wunderground v.1.15,2013-08-17 07:36:00,
2013-08-17 03:42:00,83.8,78.4,30.01,East,86,2.0,7.0,84,0.00,,,0.00,0,Wunderground v.1.15,2013-08-17 07:42:00,
2013-08-17 03:48:00,83.7,78.0,30.01,SE,130,3.0,7.0,83,0.00,,,0.00,0,Wunderground v.1.15,2013-08-17 07:48:00,
2013-08-17 03:54:00,83.7,78.0,30.00,SE,140,3.0,9.0,83,0.00,,,0.00,0,Wunderground v.1.15,2013-08-17 07:54:00,
2013-08-17 04:02:00,83.7,77.6,30.00,ESE,115,4.0,5.0,82,0.00,,,0.00,0,Wunderground v.1.15,2013-08-17 08:02:00,
2013-08-17 04:08:00,83.7,77.6,30.00,ESE,105,3.0,8.0,82,0.00,,,0.00,0,Wunderground v.1.15,2013-08-17 08:08:00,
2013-08-17 04:14:00,83.7,77.6,30.01,ESE,114,3.0,3.0,82,0.00,,,0.00,0,Wunderground v.1.15,2013-08-17 08:14:00,
2013-08-17 04:20:00,83.6,77.5,30.01,SSE,147,2.0,2.0,82,0.00,,,0.00,0,Wunderground v.1.15,2013-08-17 08:20:00,
2013-08-17 04:26:00,83.6,77.5,30.01,East,91,1.0,3.0,82,0.00,,,0.00,0,Wunderground v.1.15,2013-08-17 08:26:00,
2013-08-17 04:32:00,83.6,77.5,30.01,SE,137,1.0,8.0,82,0.00,,,0.00,0,Wunderground v.1.15,2013-08-17 08:32:00,
2013-08-17 04:38:00,83.6,77.1,30.01,ESE,115,2.0,8.0,81,0.00,,,0.00,0,Wunderground v.1.15,2013-08-17 08:38:00,
2013-08-17 04:44:00,83.6,77.1,30.01,ESE,109,1.0,6.0,81,0.00,,,0.00,0,Wunderground v.1.15,2013-08-17 08:44:00,
2013-08-17 04:50:00,83.6,77.1,30.01,East,96,2.0,7.0,81,0.00,,,0.00,0,Wunderground v.1.15,2013-08-17 08:50:00,
2013-08-17 04:56:00,83.6,77.1,30.01,SE,130,2.0,7.0,81,0.00,,,0.00,0,Wunderground v.1.15,2013-08-17 08:56:00,
2013-08-17 05:02:00,83.6,77.1,30.01,ESE,113,0.0,1.0,81,0.00,,,0.00,0,Wunderground v.1.15,2013-08-17 09:02:00,
2013-08-17 05:08:00,83.6,77.1,30.01,ESE,112,0.0,1.0,81,0.00,,,0.00,0,Wunderground v.1.15,2013-08-17 09:08:00,
2013-08-17 05:14:00,83.5,77.1,30.01,ESE,122,0.0,0.0,81,0.00,,,0.00,0,Wunderground v.1.15,2013-08-17 09:14:00,
2013-08-17 05:20:00,83.6,77.5,30.01,SE,129,0.0,0.0,82,0.00,,,0.00,0,Wunderground v.1.15,2013-08-17 09:20:00,
2013-08-17 05:26:00,83.5,77.4,30.01,SE,129,0.0,0.0,82,0.00,,,0.00,0,Wunderground v.1.15,2013-08-17 09:26:00,
2013-08-17 05:32:00,83.4,77.3,30.01,ESE,113,0.0,7.0,82,0.00,,,0.00,0,Wunderground v.1.15,2013-08-17 09:32:00,
2013-08-17 05:38:00,83.4,77.3,30.01,ESE,115,1.0,7.0,82,0.00,,,0.00,0,Wunderground v.1.15,2013-08-17 09:38:00,
2013-08-17 05:44:00,83.3,77.2,30.01,SE,133,0.0,1.0,82,0.00,,,0.00,0,Wunderground v.1.15,2013-08-17 09:44:00,
2013-08-17 05:50:00,83.2,77.1,30.01,SE,136,1.0,1.0,82,0.00,,,0.00,0,Wunderground v.1.15,2013-08-17 09:50:00,
2013-08-17 05:56:00,83.2,77.1,30.01,ESE,111,2.0,7.0,82,0.00,,,0.00,0,Wunderground v.1.15,2013-08-17 09:56:00,
2013-08-17 06:02:00,83.2,76.8,30.01,SE,135,1.0,4.0,81,0.00,,,0.00,0,Wunderground v.1.15,2013-08-17 10:02:00,
2013-08-17 06:08:00,83.2,76.8,30.01,SE,129,2.0,4.0,81,0.00,,,0.00,0,Wunderground v.1.15,2013-08-17 10:08:00,
2013-08-17 06:14:00,83.2,76.8,30.02,East,98,1.0,2.0,81,0.00,,,0.00,0,Wunderground v.1.15,2013-08-17 10:14:00,
2013-08-17 06:20:00,83.2,76.8,30.02,SSE,148,0.0,7.0,81,0.00,,,0.00,0,Wunderground v.1.15,2013-08-17 10:20:00,
2013-08-17 06:26:00,83.2,77.1,30.02,ESE,123,2.0,7.0,82,0.00,,,0.00,0,Wunderground v.1.15,2013-08-17 10:26:00,
2013-08-17 06:32:00,83.2,77.1,30.02,SE,134,1.0,4.0,82,0.00,,,0.00,0,Wunderground v.1.15,2013-08-17 10:32:00,
2013-08-17 06:38:00,83.1,77.0,30.02,ESE,119,1.0,4.0,82,0.00,,,0.00,0,Wunderground v.1.15,2013-08-17 10:38:00,
2013-08-17 06:44:00,83.1,77.0,30.02,SE,136,1.0,1.0,82,0.00,,,0.00,0,Wunderground v.1.15,2013-08-17 10:44:00,
2013-08-17 06:50:00,83.1,77.0,30.02,SE,138,1.0,1.0,82,0.00,,,0.00,0,Wunderground v.1.15,2013-08-17 10:50:00,
2013-08-17 06:56:00,83.0,76.9,30.02,ESE,102,1.0,4.0,82,0.00,,,0.00,5,Wunderground v.1.15,2013-08-17 10:56:00,
2013-08-17 07:02:00,83.0,76.9,30.02,SSE,168,1.0,1.0,82,0.00,,,0.00,11,Wunderground v.1.15,2013-08-17 11:02:00,
2013-08-17 07:08:00,83.0,76.9,30.02,SE,126,1.0,6.0,82,0.00,,,0.00,16,Wunderground v.1.15,2013-08-17 11:08:00,
2013-08-17 07:14:00,83.0,76.9,30.02,SE,125,1.0,4.0,82,0.00,,,0.00,21,Wunderground v.1.15,2013-08-17 11:14:00,
2013-08-17 07:20:00,83.1,76.7,30.02,SE,131,2.0,2.0,81,0.00,,,0.00,28,Wunderground v.1.15,2013-08-17 11:20:00,
2013-08-17 07:26:00,83.2,76.8,30.03,SE,130,3.0,3.0,81,0.00,,,0.00,39,Wunderground v.1.15,2013-08-17 11:26:00,
2013-08-17 07:32:00,83.4,77.0,30.03,ESE,119,2.0,5.0,81,0.00,,,0.00,53,Wunderground v.1.15,2013-08-17 11:32:00,
2013-08-17 07:38:00,83.6,77.1,30.03,SSE,152,4.0,7.0,81,0.00,,,0.00,67,Wunderground v.1.15,2013-08-17 11:38:00,
2013-08-17 07:44:00,83.7,76.9,30.03,ESE,102,2.0,4.0,80,0.00,,,0.00,84,Wunderground v.1.15,2013-08-17 11:44:00,
2013-08-17 07:50:00,83.9,76.7,30.04,SE,124,4.0,4.0,79,0.00,,,0.00,104,Wunderground v.1.15,2013-08-17 11:50:00,
2013-08-17 07:56:00,84.1,76.9,30.03,ESE,123,5.0,8.0,79,0.00,,,0.00,125,Wunderground v.1.15,2013-08-17 11:56:00,
2013-08-17 08:02:00,84.3,77.1,30.03,ESE,111,5.0,8.0,79,0.00,,,0.00,149,Wunderground v.1.15,2013-08-17 12:02:00,
2013-08-17 08:08:00,84.5,77.3,30.03,SSE,148,2.0,8.0,79,0.00,,,0.00,174,Wunderground v.1.15,2013-08-17 12:08:00,
2013-08-17 08:14:00,84.8,77.6,30.04,East,93,2.0,6.0,79,0.00,,,0.00,204,Wunderground v.1.15,2013-08-17 12:14:00,
2013-08-17 08:20:00,85.0,77.4,30.04,ESE,107,3.0,5.0,78,0.00,,,0.00,216,Wunderground v.1.15,2013-08-17 12:20:00,
2013-08-17 08:26:00,85.2,77.6,30.04,ESE,114,3.0,7.0,78,0.00,,,0.00,237,Wunderground v.1.15,2013-08-17 12:26:00,
2013-08-17 08:32:00,85.4,77.8,30.04,SSE,161,4.0,4.0,78,0.00,,,0.00,258,Wunderground v.1.15,2013-08-17 12:32:00,
2013-08-17 08:38:00,85.6,77.6,30.04,SE,135,4.0,7.0,77,0.00,,,0.00,283,Wunderground v.1.15,2013-08-17 12:38:00,
2013-08-17 08:44:00,85.9,77.8,30.05,ESE,123,3.0,8.0,77,0.00,,,0.00,302,Wunderground v.1.15,2013-08-17 12:44:00,
2013-08-17 08:50:00,86.2,77.7,30.05,SE,137,2.0,4.0,76,0.00,,,0.00,318,Wunderground v.1.15,2013-08-17 12:50:00,
2013-08-17 08:56:00,86.2,77.7,30.05,East,86,4.0,11.0,76,0.00,,,0.00,345,Wunderground v.1.15,2013-08-17 12:56:00,
2013-08-17 09:02:00,86.3,78.2,30.05,SSE,163,4.0,5.0,77,0.00,,,0.00,362,Wunderground v.1.15,2013-08-17 13:02:00,
2013-08-17 09:08:00,86.7,78.2,30.05,ESE,121,2.0,5.0,76,0.00,,,0.00,394,Wunderground v.1.15,2013-08-17 13:08:00,
2013-08-17 09:14:00,87.1,78.2,30.05,East,96,2.0,6.0,75,0.00,,,0.00,411,Wunderground v.1.15,2013-08-17 13:14:00,
2013-08-17 09:20:00,87.1,77.8,30.05,ESE,113,2.0,7.0,74,0.00,,,0.00,434,Wunderground v.1.15,2013-08-17 13:20:00,
2013-08-17 09:26:00,87.0,78.1,30.05,SE,142,4.0,7.0,75,0.00,,,0.00,448,Wunderground v.1.15,2013-08-17 13:26:00,
2013-08-17 09:32:00,87.0,77.7,30.05,ESE,105,4.0,8.0,74,0.00,,,0.00,466,Wunderground v.1.15,2013-08-17 13:32:00,
2013-08-17 09:38:00,86.9,77.6,30.06,East,100,5.0,8.0,74,0.00,,,0.00,490,Wunderground v.1.15,2013-08-17 13:38:00,
2013-08-17 09:44:00,87.0,77.7,30.06,SE,126,5.0,5.0,74,0.00,,,0.00,506,Wunderground v.1.15,2013-08-17 13:44:00,
2013-08-17 09:50:00,86.8,77.9,30.06,ENE,68,6.0,8.0,75,0.00,,,0.00,464,Wunderground v.1.15,2013-08-17 13:50:00,
2013-08-17 09:56:00,86.9,77.6,30.07,SSE,153,5.0,14.0,74,0.00,,,0.00,564,Wunderground v.1.15,2013-08-17 13:56:00,
2013-08-17 10:02:00,87.2,78.3,30.07,East,96,5.0,7.0,75,0.00,,,0.00,617,Wunderground v.1.15,2013-08-17 14:02:00,
2013-08-17 10:08:00,87.2,78.7,30.06,ESE,117,5.0,7.0,76,0.00,,,0.00,596,Wunderground v.1.15,2013-08-17 14:08:00,
2013-08-17 10:14:00,87.1,77.8,30.07,ESE,103,5.0,9.0,74,0.00,,,0.00,601,Wunderground v.1.15,2013-08-17 14:14:00,
2013-08-17 10:20:00,87.3,78.4,30.06,South,171,6.0,7.0,75,0.00,,,0.00,612,Wunderground v.1.15,2013-08-17 14:20:00,
2013-08-17 10:26:00,87.7,77.1,30.06,ESE,123,5.0,7.0,71,0.00,,,0.00,619,Wunderground v.1.15,2013-08-17 14:26:00,
2013-08-17 10:32:00,87.7,77.1,30.06,ESE,114,6.0,7.0,71,0.00,,,0.00,642,Wunderground v.1.15,2013-08-17 14:32:00,
2013-08-17 10:38:00,87.7,77.1,30.07,ESE,118,7.0,9.0,71,0.00,,,0.00,663,Wunderground v.1.15,2013-08-17 14:38:00,
2013-08-17 10:44:00,87.8,77.2,30.06,SE,134,6.0,10.0,71,0.00,,,0.00,684,Wunderground v.1.15,2013-08-17 14:44:00,
2013-08-17 10:50:00,87.9,77.7,30.07,SE,128,6.0,8.0,72,0.00,,,0.00,696,Wunderground v.1.15,2013-08-17 14:50:00,
2013-08-17 10:56:00,88.1,77.5,30.07,ESE,117,6.0,12.0,71,0.00,,,0.00,707,Wunderground v.1.15,2013-08-17 14:56:00,
2013-08-17 11:02:00,88.0,78.3,30.07,SE,136,5.0,8.0,73,0.00,,,0.00,729,Wunderground v.1.15,2013-08-17 15:02:00,
2013-08-17 11:08:00,88.2,77.6,30.07,East,101,4.0,8.0,71,0.00,,,0.00,742,Wunderground v.1.15,2013-08-17 15:08:00,
2013-08-17 11:14:00,88.1,77.9,30.07,ESE,113,5.0,7.0,72,0.00,,,0.00,756,Wunderground v.1.15,2013-08-17 15:14:00,
2013-08-17 11:20:00,88.2,78.0,30.07,East,96,5.0,5.0,72,0.00,,,0.00,768,Wunderground v.1.15,2013-08-17 15:20:00,
2013-08-17 11:26:00,88.6,78.4,30.07,East,98,4.0,7.0,72,0.00,,,0.00,791,Wunderground v.1.15,2013-08-17 15:26:00,
2013-08-17 11:32:00,88.5,78.3,30.06,SE,137,6.0,10.0,72,0.00,,,0.00,819,Wunderground v.1.15,2013-08-17 15:32:00,
2013-08-17 11:38:00,88.7,78.9,30.06,East,88,5.0,10.0,73,0.00,,,0.00,838,Wunderground v.1.15,2013-08-17 15:38:00,
2013-08-17 11:44:00,89.1,78.9,30.06,ESE,108,3.0,8.0,72,0.00,,,0.00,202,Wunderground v.1.15,2013-08-17 15:44:00,
2013-08-17 11:50:00,88.9,78.7,30.06,ENE,65,3.0,7.0,72,0.00,,,0.00,872,Wunderground v.1.15,2013-08-17 15:50:00,
2013-08-17 11:56:00,88.6,78.8,30.07,ESE,119,4.0,13.0,73,0.00,,,0.00,884,Wunderground v.1.15,2013-08-17 15:56:00,
2013-08-17 12:02:00,88.5,78.7,30.06,ESE,123,5.0,9.0,73,0.00,,,0.00,362,Wunderground v.1.15,2013-08-17 16:02:00,
2013-08-17 12:08:00,88.5,79.1,30.06,East,101,5.0,11.0,74,0.00,,,0.00,888,Wunderground v.1.15,2013-08-17 16:08:00,
2013-08-17 12:14:00,88.6,78.8,30.06,ESE,103,6.0,11.0,73,0.00,,,0.00,925,Wunderground v.1.15,2013-08-17 16:14:00,
2013-08-17 12:20:00,88.2,78.4,30.06,ESE,113,6.0,8.0,73,0.00,,,0.00,295,Wunderground v.1.15,2013-08-17 16:20:00,
2013-08-17 12:26:00,88.1,78.3,30.06,East,99,7.0,10.0,73,0.00,,,0.00,895,Wunderground v.1.15,2013-08-17 16:26:00,
2013-08-17 12:32:00,88.0,79.1,30.06,ESE,119,6.0,7.0,75,0.00,,,0.00,972,Wunderground v.1.15,2013-08-17 16:32:00,
2013-08-17 12:38:00,88.3,79.0,30.05,SE,129,6.0,10.0,74,0.00,,,0.00,381,Wunderground v.1.15,2013-08-17 16:38:00,
2013-08-17 12:44:00,88.3,79.4,30.05,ESE,123,6.0,11.0,75,0.00,,,0.00,911,Wunderground v.1.15,2013-08-17 16:44:00,
2013-08-17 12:50:00,88.4,79.5,30.05,East,91,6.0,6.0,75,0.00,,,0.00,911,Wunderground v.1.15,2013-08-17 16:50:00,
2013-08-17 12:56:00,88.9,79.5,30.05,East,92,6.0,8.0,74,0.00,,,0.00,366,Wunderground v.1.15,2013-08-17 16:56:00,
2013-08-17 13:02:00,88.2,79.3,30.05,SE,142,7.0,7.0,75,0.00,,,0.00,120,Wunderground v.1.15,2013-08-17 17:02:00,
2013-08-17 13:08:00,85.9,77.1,30.05,SE,127,6.0,8.0,75,0.33,,,0.02,209,Wunderground v.1.15,2013-08-17 17:08:00,
2013-08-17 13:14:00,84.7,78.2,30.05,ESE,116,3.0,6.0,81,0.14,,,0.03,497,Wunderground v.1.15,2013-08-17 17:14:00,
2013-08-17 13:20:00,84.9,79.9,30.04,ESE,123,2.0,8.0,85,0.06,,,0.03,960,Wunderground v.1.15,2013-08-17 17:20:00,
2013-08-17 13:26:00,85.4,79.3,30.04,SE,145,4.0,8.0,82,0.04,,,0.03,993,Wunderground v.1.15,2013-08-17 17:26:00,
2013-08-17 13:32:00,86.0,79.1,30.04,SSE,159,4.0,8.0,80,0.00,,,0.03,977,Wunderground v.1.15,2013-08-17 17:32:00,
2013-08-17 13:38:00,86.5,79.2,30.04,East,83,6.0,8.0,79,0.00,,,0.03,944,Wunderground v.1.15,2013-08-17 17:38:00,
2013-08-17 13:44:00,87.4,80.1,30.04,ESE,103,4.0,7.0,79,0.00,,,0.03,466,Wunderground v.1.15,2013-08-17 17:44:00,
2013-08-17 13:50:00,87.3,79.2,30.04,ESE,119,3.0,3.0,77,0.00,,,0.03,204,Wunderground v.1.15,2013-08-17 17:50:00,
2013-08-17 13:56:00,87.1,79.0,30.04,SE,143,4.0,10.0,77,0.00,,,0.03,353,Wunderground v.1.15,2013-08-17 17:56:00,
2013-08-17 14:02:00,87.5,78.6,30.04,SE,137,7.0,12.0,75,0.00,,,0.03,949,Wunderground v.1.15,2013-08-17 18:02:00,
2013-08-17 14:08:00,88.1,79.2,30.03,East,95,7.0,15.0,75,0.00,,,0.03,925,Wunderground v.1.15,2013-08-17 18:08:00,
2013-08-17 14:14:00,88.4,79.5,30.03,East,84,7.0,10.0,75,0.00,,,0.03,949,Wunderground v.1.15,2013-08-17 18:14:00,
2013-08-17 14:20:00,88.2,78.4,30.03,ESE,117,7.0,9.0,73,0.00,,,0.03,626,Wunderground v.1.15,2013-08-17 18:20:00,
2013-08-17 14:26:00,88.1,77.5,30.03,SSE,165,8.0,10.0,71,0.00,,,0.03,840,Wunderground v.1.15,2013-08-17 18:26:00,
2013-08-17 14:32:00,88.8,77.7,30.03,SE,138,6.0,7.0,70,0.00,,,0.03,905,Wunderground v.1.15,2013-08-17 18:32:00,
2013-08-17 14:38:00,89.3,77.8,30.03,SE,131,5.0,7.0,69,0.00,,,0.03,900,Wunderground v.1.15,2013-08-17 18:38:00,
2013-08-17 14:44:00,89.5,78.0,30.03,SSE,163,6.0,9.0,69,0.00,,,0.03,919,Wunderground v.1.15,2013-08-17 18:44:00,
2013-08-17 14:50:00,89.2,78.6,30.02,ESE,111,6.0,6.0,71,0.00,,,0.03,896,Wunderground v.1.15,2013-08-17 18:50:00,
2013-08-17 14:56:00,89.2,78.6,30.02,NE,56,5.0,11.0,71,0.00,,,0.03,896,Wunderground v.1.15,2013-08-17 18:56:00,
2013-08-17 15:02:00,89.3,79.1,30.02,ESE,117,6.0,6.0,72,0.00,,,0.03,373,Wunderground v.1.15,2013-08-17 19:02:00,
2013-08-17 15:08:00,88.5,79.1,30.02,SE,144,7.0,10.0,74,0.00,,,0.03,227,Wunderground v.1.15,2013-08-17 19:08:00,
2013-08-17 15:14:00,87.5,79.0,30.02,SE,144,8.0,12.0,76,0.00,,,0.03,863,Wunderground v.1.15,2013-08-17 19:14:00,
2013-08-17 15:20:00,87.1,78.2,30.02,East,90,9.0,9.0,75,0.00,,,0.03,798,Wunderground v.1.15,2013-08-17 19:20:00,
2013-08-17 15:26:00,87.5,78.2,30.01,SSW,202,7.0,14.0,74,0.00,,,0.03,784,Wunderground v.1.15,2013-08-17 19:26:00,
2013-08-17 15:32:00,88.0,78.3,30.01,ESE,109,6.0,6.0,73,0.00,,,0.03,775,Wunderground v.1.15,2013-08-17 19:32:00,
2013-08-17 15:38:00,88.1,78.3,30.01,SE,128,6.0,11.0,73,0.00,,,0.03,756,Wunderground v.1.15,2013-08-17 19:38:00,
2013-08-17 15:44:00,87.4,78.1,30.01,SE,146,8.0,11.0,74,0.00,,,0.03,747,Wunderground v.1.15,2013-08-17 19:44:00,
2013-08-17 15:50:00,87.4,78.1,30.01,SSE,150,6.0,12.0,74,0.00,,,0.03,729,Wunderground v.1.15,2013-08-17 19:50:00,
2013-08-17 15:56:00,87.8,76.8,30.01,ESE,106,6.0,12.0,70,0.00,,,0.03,714,Wunderground v.1.15,2013-08-17 19:56:00,
2013-08-17 16:02:00,87.5,76.9,30.00,SSE,157,7.0,9.0,71,0.00,,,0.03,703,Wunderground v.1.15,2013-08-17 20:02:00,
2013-08-17 16:08:00,87.8,77.2,30.00,SE,129,6.0,10.0,71,0.00,,,0.03,687,Wunderground v.1.15,2013-08-17 20:08:00,
2013-08-17 16:14:00,87.6,77.9,30.00,East,82,6.0,8.0,73,0.00,,,0.03,670,Wunderground v.1.15,2013-08-17 20:14:00,
2013-08-17 16:20:00,87.5,77.8,30.00,East,79,6.0,6.0,73,0.00,,,0.03,654,Wunderground v.1.15,2013-08-17 20:20:00,
2013-08-17 16:26:00,87.4,77.7,30.00,East,90,6.0,11.0,73,0.00,,,0.03,635,Wunderground v.1.15,2013-08-17 20:26:00,
2013-08-17 16:32:00,87.7,78.4,30.01,SE,127,4.0,7.0,74,0.00,,,0.03,619,Wunderground v.1.15,2013-08-17 20:32:00,
2013-08-17 16:38:00,87.7,78.0,30.01,ENE,74,4.0,8.0,73,0.00,,,0.03,603,Wunderground v.1.15,2013-08-17 20:38:00,
2013-08-17 16:44:00,87.5,78.6,30.01,ESE,111,6.0,6.0,75,0.00,,,0.03,580,Wunderground v.1.15,2013-08-17 20:44:00,
2013-08-17 16:50:00,87.7,78.8,30.01,SE,136,4.0,10.0,75,0.00,,,0.03,570,Wunderground v.1.15,2013-08-17 20:50:00,
2013-08-17 16:56:00,87.6,78.7,30.01,ENE,68,5.0,14.0,75,0.00,,,0.03,561,Wunderground v.1.15,2013-08-17 20:56:00,
2013-08-17 17:02:00,87.1,78.6,30.00,ESE,113,6.0,9.0,76,0.00,,,0.03,476,Wunderground v.1.15,2013-08-17 21:02:00,
2013-08-17 17:08:00,86.7,78.6,30.00,ESE,107,6.0,9.0,77,0.00,,,0.03,471,Wunderground v.1.15,2013-08-17 21:08:00,
2013-08-17 17:14:00,87.0,78.9,30.00,SE,128,4.0,6.0,77,0.00,,,0.03,466,Wunderground v.1.15,2013-08-17 21:14:00,
2013-08-17 17:20:00,86.8,78.7,30.00,ESE,116,6.0,6.0,77,0.00,,,0.03,490,Wunderground v.1.15,2013-08-17 21:20:00,
2013-08-17 17:26:00,86.6,78.9,30.00,ESE,102,6.0,11.0,78,0.00,,,0.03,410,Wunderground v.1.15,2013-08-17 21:26:00,
2013-08-17 17:32:00,86.4,78.7,30.00,ESE,105,5.0,6.0,78,0.00,,,0.03,422,Wunderground v.1.15,2013-08-17 21:32:00,
2013-08-17 17:38:00,86.4,78.7,30.00,ESE,113,4.0,7.0,78,0.00,,,0.03,397,Wunderground v.1.15,2013-08-17 21:38:00,
2013-08-17 17:44:00,86.3,78.6,30.00,ENE,72,5.0,11.0,78,0.00,,,0.03,390,Wunderground v.1.15,2013-08-17 21:44:00,
2013-08-17 17:50:00,86.3,78.6,30.00,ESE,115,5.0,7.0,78,0.00,,,0.03,366,Wunderground v.1.15,2013-08-17 21:50:00,
2013-08-17 17:56:00,86.3,79.0,30.00,East,93,5.0,10.0,79,0.00,,,0.03,352,Wunderground v.1.15,2013-08-17 21:56:00,
2013-08-17 18:02:00,86.5,79.2,30.00,NE,54,3.0,3.0,79,0.00,,,0.03,311,Wunderground v.1.15,2013-08-17 22:02:00,
2013-08-17 18:08:00,86.4,79.1,30.00,ENE,57,4.0,7.0,79,0.00,,,0.03,301,Wunderground v.1.15,2013-08-17 22:08:00,
2013-08-17 18:14:00,86.4,79.1,30.01,ENE,76,3.0,4.0,79,0.00,,,0.03,97,Wunderground v.1.15,2013-08-17 22:14:00,
2013-08-17 18:20:00,85.9,78.2,30.01,East,96,4.0,8.0,78,0.00,,,0.03,257,Wunderground v.1.15,2013-08-17 22:20:00,
2013-08-17 18:26:00,85.8,78.5,30.01,East,94,4.0,8.0,79,0.00,,,0.03,79,Wunderground v.1.15,2013-08-17 22:26:00,
2013-08-17 18:32:00,85.9,78.6,30.01,ESE,116,4.0,4.0,79,0.00,,,0.03,220,Wunderground v.1.15,2013-08-17 22:32:00,
2013-08-17 18:38:00,85.9,78.2,30.00,ESE,106,4.0,5.0,78,0.00,,,0.03,197,Wunderground v.1.15,2013-08-17 22:38:00,
2013-08-17 18:44:00,85.9,77.8,30.01,East,82,3.0,6.0,77,0.00,,,0.03,142,Wunderground v.1.15,2013-08-17 22:44:00,
2013-08-17 18:50:00,85.9,77.5,30.01,East,90,3.0,5.0,76,0.00,,,0.03,144,Wunderground v.1.15,2013-08-17 22:50:00,
2013-08-17 18:56:00,85.9,77.5,30.01,East,83,4.0,9.0,76,0.00,,,0.03,116,Wunderground v.1.15,2013-08-17 22:56:00,
2013-08-17 19:02:00,85.8,77.8,30.01,ENE,59,4.0,5.0,77,0.00,,,0.03,93,Wunderground v.1.15,2013-08-17 23:02:00,
2013-08-17 19:08:00,85.7,78.0,30.01,ENE,61,3.0,7.0,78,0.00,,,0.03,62,Wunderground v.1.15,2013-08-17 23:08:00,
2013-08-17 19:14:00,85.5,78.2,30.02,NE,53,2.0,5.0,79,0.00,,,0.03,44,Wunderground v.1.15,2013-08-17 23:14:00,
2013-08-17 19:20:00,85.2,78.3,30.02,East,101,2.0,5.0,80,0.00,,,0.03,23,Wunderground v.1.15,2013-08-17 23:20:00,
2013-08-17 19:26:00,85.0,77.8,30.02,NE,51,2.0,7.0,79,0.00,,,0.03,14,Wunderground v.1.15,2013-08-17 23:26:00,
2013-08-17 19:32:00,84.9,76.9,30.03,East,82,3.0,4.0,77,0.00,,,0.03,9,Wunderground v.1.15,2013-08-17 23:32:00,
2013-08-17 19:38:00,85.0,77.4,30.03,ESE,112,3.0,5.0,78,0.00,,,0.03,5,Wunderground v.1.15,2013-08-17 23:38:00,
2013-08-17 19:44:00,84.9,77.3,30.03,ESE,109,4.0,7.0,78,0.00,,,0.03,0,Wunderground v.1.15,2013-08-17 23:44:00,
2013-08-17 19:50:00,84.8,77.6,30.03,ESE,114,5.0,5.0,79,0.00,,,0.03,0,Wunderground v.1.15,2013-08-17 23:50:00,
2013-08-17 19:56:00,84.8,77.9,30.03,ENE,72,3.0,5.0,80,0.00,,,0.03,0,Wunderground v.1.15,2013-08-17 23:56:00,
2013-08-17 20:02:00,84.8,77.9,30.03,East,92,3.0,6.0,80,0.00,,,0.03,0,Wunderground v.1.15,2013-08-18 00:02:00,
2013-08-17 20:08:00,84.7,77.8,30.03,East,96,0.0,6.0,80,0.00,,,0.03,0,Wunderground v.1.15,2013-08-18 00:08:00,
2013-08-17 20:14:00,84.6,77.4,30.03,ESE,104,3.0,3.0,79,0.00,,,0.03,0,Wunderground v.1.15,2013-08-18 00:14:00,
2013-08-17 20:20:00,84.6,77.0,30.04,ENE,63,3.0,3.0,78,0.00,,,0.03,0,Wunderground v.1.15,2013-08-18 00:20:00,
2013-08-17 20:26:00,84.7,77.5,30.04,ENE,73,2.0,9.0,79,0.00,,,0.03,0,Wunderground v.1.15,2013-08-18 00:26:00,
2013-08-17 20:32:00,84.6,77.4,30.05,ENE,71,1.0,4.0,79,0.00,,,0.03,0,Wunderground v.1.15,2013-08-18 00:32:00,
2013-08-17 20:38:00,84.6,77.4,30.05,ESE,106,1.0,4.0,79,0.00,,,0.03,0,Wunderground v.1.15,2013-08-18 00:38:00,
2013-08-17 20:44:00,84.6,77.7,30.05,East,95,1.0,1.0,80,0.00,,,0.03,0,Wunderground v.1.15,2013-08-18 00:44:00,
2013-08-17 20:50:00,84.6,77.7,30.05,ESE,106,1.0,5.0,80,0.00,,,0.03,0,Wunderground v.1.15,2013-08-18 00:50:00,
2013-08-17 20:56:00,84.6,77.7,30.05,ESE,106,2.0,9.0,80,0.00,,,0.03,0,Wunderground v.1.15,2013-08-18 00:56:00,
2013-08-17 21:02:00,84.5,78.0,30.05,ESE,106,3.0,8.0,81,0.00,,,0.03,0,Wunderground v.1.15,2013-08-18 01:02:00,
2013-08-17 21:08:00,84.3,77.8,30.06,East,88,3.0,8.0,81,0.00,,,0.03,0,Wunderground v.1.15,2013-08-18 01:08:00,
2013-08-17 21:14:00,84.2,77.7,30.06,East,91,2.0,3.0,81,0.00,,,0.03,0,Wunderground v.1.15,2013-08-18 01:14:00,
2013-08-17 21:20:00,84.1,77.6,30.06,East,97,1.0,1.0,81,0.00,,,0.03,0,Wunderground v.1.15,2013-08-18 01:20:00,
2013-08-17 21:26:00,84.1,77.6,30.06,NE,44,2.0,2.0,81,0.00,,,0.03,0,Wunderground v.1.15,2013-08-18 01:26:00,
2013-08-17 21:32:00,84.0,76.8,30.06,SE,125,1.0,5.0,79,0.00,,,0.03,0,Wunderground v.1.15,2013-08-18 01:32:00,
2013-08-17 21:38:00,84.1,76.5,30.06,East,101,2.0,5.0,78,0.00,,,0.03,0,Wunderground v.1.15,2013-08-18 01:38:00,
2013-08-17 21:44:00,84.1,76.5,30.06,East,84,1.0,1.0,78,0.00,,,0.03,0,Wunderground v.1.15,2013-08-18 01:44:00,
2013-08-17 21:50:00,84.1,76.5,30.06,ENE,75,2.0,9.0,78,0.00,,,0.03,0,Wunderground v.1.15,2013-08-18 01:50:00,
2013-08-17 21:56:00,84.2,76.6,30.06,ESE,119,2.0,12.0,78,0.00,,,0.03,0,Wunderground v.1.15,2013-08-18 01:56:00,
2013-08-17 22:02:00,84.2,77.0,30.07,ESE,102,2.0,2.0,79,0.00,,,0.03,0,Wunderground v.1.15,2013-08-18 02:02:00,
2013-08-17 22:08:00,84.1,76.9,30.07,East,80,1.0,2.0,79,0.00,,,0.03,0,Wunderground v.1.15,2013-08-18 02:08:00,
2013-08-17 22:14:00,84.1,76.9,30.07,East,87,1.0,1.0,79,0.00,,,0.03,0,Wunderground v.1.15,2013-08-18 02:14:00,
2013-08-17 22:20:00,84.1,77.3,30.07,SE,126,2.0,2.0,80,0.00,,,0.03,0,Wunderground v.1.15,2013-08-18 02:20:00,
2013-08-17 22:26:00,84.0,77.2,30.07,East,88,2.0,7.0,80,0.00,,,0.03,0,Wunderground v.1.15,2013-08-18 02:26:00,
2013-08-17 22:32:00,84.0,77.2,30.07,East,86,3.0,6.0,80,0.00,,,0.03,0,Wunderground v.1.15,2013-08-18 02:32:00,
2013-08-17 22:38:00,84.0,77.5,30.07,East,100,2.0,6.0,81,0.00,,,0.03,0,Wunderground v.1.15,2013-08-18 02:38:00,
2013-08-17 22:44:00,83.9,77.4,30.07,East,90,2.0,10.0,81,0.00,,,0.03,0,Wunderground v.1.15,2013-08-18 02:44:00,
2013-08-17 22:50:00,83.9,77.4,30.08,SE,129,3.0,3.0,81,0.00,,,0.03,0,Wunderground v.1.15,2013-08-18 02:50:00,
2013-08-17 22:56:00,83.8,77.3,30.08,East,90,3.0,11.0,81,0.00,,,0.03,0,Wunderground v.1.15,2013-08-18 02:56:00,
2013-08-17 23:02:00,83.8,77.0,30.08,ESE,109,4.0,5.0,80,0.00,,,0.03,0,Wunderground v.1.15,2013-08-18 03:02:00,
2013-08-17 23:08:00,83.8,77.0,30.08,ENE,61,4.0,8.0,80,0.00,,,0.03,0,Wunderground v.1.15,2013-08-18 03:08:00,
2013-08-17 23:14:00,83.8,77.0,30.08,East,88,3.0,7.0,80,0.00,,,0.03,0,Wunderground v.1.15,2013-08-18 03:14:00,
2013-08-17 23:20:00,83.8,77.0,30.08,ESE,117,3.0,4.0,80,0.00,,,0.03,0,Wunderground v.1.15,2013-08-18 03:20:00,
2013-08-17 23:26:00,83.8,77.0,30.08,East,101,2.0,8.0,80,0.00,,,0.03,0,Wunderground v.1.15,2013-08-18 03:26:00,
2013-08-17 23:32:00,83.7,76.9,30.08,ESE,113,3.0,6.0,80,0.00,,,0.03,0,Wunderground v.1.15,2013-08-18 03:32:00,
2013-08-17 23:38:00,83.7,76.9,30.07,ESE,103,3.0,7.0,80,0.00,,,0.03,0,Wunderground v.1.15,2013-08-18 03:38:00,
2013-08-17 23:44:00,83.6,76.8,30.08,ENE,69,1.0,5.0,80,0.00,,,0.03,0,Wunderground v.1.15,2013-08-18 03:44:00,
2013-08-17 23:50:00,83.6,76.8,30.07,ENE,76,2.0,3.0,80,0.00,,,0.03,0,Wunderground v.1.15,2013-08-18 03:50:00,
2013-08-17 23:56:00,83.6,76.4,30.07,SE,127,3.0,9.0,79,0.00,,,0.03,0,Wunderground v.1.15,2013-08-18 03:56:00,